Theta_e
347 340 338 341 340 342 342 343 344 344 342 341 337 335 336 342 344 344 338 336 337 337 337 340 338 338 342 344 342 342 342 339 339 341 338 332 338 340 338 340 344 342 341
346 345 339 337 342 344 345 345 343 343 337 342 340 333 331 340 339 343 344 339 339 341 341 339 339 339 343 342 342 344 341 342 343 342 340 338 340 338 340 341 345 342 343
346 350 342 330 340 342 344 344 343 340 334 335 339 333 332 333 333 341 344 344 341 340 342 342 341 340 343 344 341 338 339 341 343 344 342 341 341 338 341 343 344 344 343
340 340 331 328 338 341 343 344 343 342 341 338 339 339 338 337 338 335 337 341 344 342 340 342 342 343 343 343 342 338 335 338 343 343 344 343 342 339 341 343 343 342 340
335 329 329 333 336 340 342 344 342 340 339 338 337 334 332 332 333 333 334 335 338 343 344 342 342 342 344 343 343 342 338 336 342 341 342 343 344 341 339 340 340 337 337
336 334 330 333 337 339 343 344 341 337 331 323 319 315 314 318 325 329 330 331 333 335 338 341 342 342 342 342 343 343 341 338 336 337 343 342 342 341 340 339 340 339 336
335 337 334 336 337 337 339 341 334 323 319 316 313 312 314 315 312 312 314 315 320 328 332 334 339 340 342 342 342 342 343 338 337 336 342 342 341 338 339 340 338 335 332
334 342 336 334 333 331 327 324 319 316 311 311 311 314 318 318 314 313 312 311 312 313 319 329 331 335 339 340 342 342 342 342 338 333 338 342 341 339 338 337 334 330 330
330 332 340 334 334 324 319 317 313 311 312 312 312 316 322 323 322 315 316 312 310 311 312 313 324 330 335 337 339 341 340 340 338 339 335 340 340 339 337 334 331 332 331
323 327 329 331 330 326 314 313 311 312 312 312 312 312 313 315 317 314 318 313 312 311 310 313 315 320 329 335 336 340 340 338 330 331 332 339 341 339 337 333 330 331 331
322 321 323 324 324 322 319 315 312 311 312 312 312 311 310 311 312 312 314 317 314 313 315 320 321 322 323 330 336 339 339 336 331 331 332 333 339 337 333 328 328 330 328
318 319 318 318 318 315 314 312 312 312 312 311 311 310 309 309 307 308 310 314 313 317 316 318 324 325 321 329 337 340 340 336 336 337 339 339 331 333 329 322 328 330 329
316 315 315 314 313 312 312 312 313 312 311 311 310 309 309 307 306 306 307 307 310 311 313 318 320 324 322 321 330 337 339 338 337 337 333 336 336 331 329 324 324 327 327
315 314 313 313 313 313 312 313 313 312 311 310 308 307 307 306 305 305 305 306 308 310 312 314 316 319 321 323 324 323 336 338 338 337 337 334 336 334 331 324 329 324 323
315 314 314 313 313 313 313 312 312 311 310 309 307 306 306 304 304 304 303 304 305 306 307 307 309 312 317 320 322 324 327 338 339 337 334 335 335 337 333 324 332 331 323
314 313 313 314 313 312 312 312 311 311 309 307 306 304 304 302 302 301 301 301 302 302 301 302 303 308 313 318 320 322 328 325 328 338 337 335 335 337 334 327 328 335 330
313 313 314 314 313 313 312 311 311 310 308 306 304 303 302 301 300 300 300 301 302 300 300 300 301 303 306 311 319 320 322 325 325 327 332 337 335 336 334 332 328 332 332
312 313 314 313 312 312 312 311 310 308 307 305 303 302 301 300 299 299 299 300 303 301 300 300 300 302 302 303 311 318 322 324 322 320 325 337 338 335 335 334 329 329 333
311 311 312 312 311 311 311 309 308 307 306 304 302 302 300 299 299 298 299 300 301 300 300 300 300 303 304 305 304 306 318 322 324 327 323 324 335 338 336 334 333 325 332
311 311 310 310 310 310 309 308 307 305 304 303 302 302 300 299 298 299 300 301 302 302 302 301 302 305 306 304 307 310 308 315 320 322 329 326 323 328 335 334 334 330 327
309 310 309 309 309 308 308 308 306 304 303 302 302 302 300 300 299 300 302 302 302 303 303 302 301 301 303 306 306 307 308 312 312 318 321 329 327 324 332 334 332 332 328
307 307 306 307 308 307 308 307 304 303 301 301 302 302 301 301 300 301 301 302 302 302 302 301 302 302 301 303 305 305 306 307 308 309 314 320 328 326 328 332 333 331 331
306 306 307 305 305 306 306 305 303 302 301 301 301 300 301 300 301 301 301 301 301 301 300 301 301 302 302 302 303 303 306 306 306 310 316 321 323 321 325 329 333 331 329
307 306 305 306 305 304 304 303 302 301 301 300 300 300 300 300 300 301 301 301 301 301 300 300 300 301 301 302 302 302 304 304 304 308 308 310 319 324 321 323 329 331 330
306 306 305 306 304 304 303 302 302 301 301 301 300 299 299 300 300 300 300 300 301 300 300 300 300 300 300 300 301 302 303 303 302 305 308 309 309 311 324 326 326 329 330
307 306 305 305 304 303 303 302 301 301 301 301 300 300 300 300 299 299 299 300 300 300 300 300 300 300 300 301 301 301 301 302 301 304 307 307 308 307 312 325 326 328 329
Wind_Speed
10 13 15 13 12 13 14 12 15 15 15 13 12 11 11 13 12 12 13 12 12 10 9 8 7 7 7 7 7 7 5 3 1 1 2 4 5 5 5 7 6 5 5
6 10 12 11 10 9 10 12 13 13 14 11 13 11 10 12 14 13 13 13 12 10 10 9 8 7 4 6 5 6 7 6 3 3 2 4 4 6 5 6 7 6 8
8 8 11 12 10 8 8 11 10 14 15 12 13 14 12 11 12 13 12 12 11 12 11 10 8 8 3 4 4 5 7 7 5 3 4 4 3 4 4 4 5 5 2
9 7 11 9 9 10 9 10 10 12 15 16 15 15 15 14 13 12 13 13 12 11 12 11 12 8 4 5 5 4 5 6 5 6 5 3 3 1 3 3 2 3 4
10 9 9 8 8 9 11 12 13 16 17 18 19 19 19 18 16 15 14 13 12 11 12 12 11 9 7 5 6 6 2 4 5 6 5 3 3 5 5 6 8 9 4
7 9 9 8 9 10 11 13 15 17 18 19 19 19 19 19 18 17 18 17 16 14 13 11 10 10 8 7 7 8 5 2 1 4 5 3 7 9 6 13 13 14 14
9 9 10 10 11 11 12 14 15 17 17 17 18 18 17 19 19 18 18 18 18 16 15 14 13 9 8 9 7 10 9 8 4 5 6 11 13 12 13 15 16 16 16
12 8 11 15 13 13 14 15 15 15 16 17 18 18 20 20 21 20 20 19 18 16 16 14 12 12 11 10 9 10 12 12 10 9 6 11 11 13 18 18 18 13 11
12 13 10 14 15 10 12 13 12 14 15 16 17 17 16 17 17 19 18 18 17 16 16 14 14 12 10 11 11 12 13 13 17 13 12 12 18 15 17 18 13 12 13
10 14 12 12 12 9 10 12 10 13 15 16 18 16 13 10 12 13 14 18 15 14 14 14 13 13 11 11 13 12 16 18 14 18 23 17 15 18 19 20 16 14 13
14 9 13 11 10 9 7 8 8 10 11 15 17 18 16 13 13 11 12 9 13 15 14 15 16 16 11 11 10 11 15 16 12 12 20 21 19 22 20 19 16 14 10
10 13 7 10 9 8 5 4 6 11 13 16 19 21 20 18 18 16 12 9 11 7 8 10 12 16 17 10 9 10 15 15 15 14 15 17 20 22 19 18 12 11 8
9 10 9 6 5 3 2 4 8 12 15 18 20 22 22 21 20 19 17 15 14 14 13 8 6 10 17 17 12 11 15 15 17 18 15 17 23 22 19 20 14 13 13
9 9 8 6 4 2 2 6 9 13 16 18 19 20 21 20 20 19 18 15 14 13 11 10 8 6 8 15 20 17 17 19 20 24 26 28 25 24 19 21 19 15 12
8 9 9 7 5 4 4 7 11 13 16 17 18 19 20 20 20 20 19 18 16 16 16 17 15 11 9 9 14 22 18 19 22 23 23 27 27 25 21 20 21 21 13
10 11 11 9 7 6 8 10 12 13 15 17 18 18 19 19 18 19 19 19 19 20 21 20 17 15 14 13 15 15 21 23 27 29 28 28 29 26 24 22 21 24 19
14 13 12 10 9 10 10 11 12 14 15 16 16 16 18 19 19 20 19 19 20 22 23 23 22 20 17 15 16 18 22 26 26 28 33 29 32 31 27 22 25 24 23
16 15 16 13 12 11 11 11 11 13 14 15 15 16 16 18 18 18 18 18 19 22 22 22 22 24 23 21 20 21 21 26 33 33 34 34 36 37 30 26 28 26 26
18 16 16 14 13 12 11 10 11 12 14 15 15 15 15 15 16 17 18 18 20 23 22 23 24 20 22 23 25 26 26 27 27 32 33 38 41 38 39 35 29 32 29
20 19 17 15 13 12 11 11 11 11 13 15 16 15 16 14 15 17 19 20 22 24 25 25 23 21 21 23 23 24 26 33 34 32 35 36 40 46 40 36 33 31 33
21 18 16 16 15 13 13 12 12 12 12 15 15 15 16 15 17 18 17 19 20 20 24 26 26 27 25 22 28 27 27 30 36 39 35 36 38 41 44 39 33 34 35
19 16 18 15 15 15 14 13 12 11 13 13 11 15 14 16 17 18 18 19 20 22 23 26 25 27 27 24 26 32 27 33 31 35 36 43 35 37 40 40 44 36 37
22 19 20 15 16 15 15 13 11 12 11 9 13 13 12 17 16 17 17 20 21 21 23 24 25 25 29 28 28 29 21 21 38 34 29 26 36 45 41 38 41 42 39
25 24 19 20 16 14 13 13 13 13 11 12 10 11 14 15 17 16 20 20 21 22 24 25 26 27 29 32 33 31 30 34 36 40 45 39 24 39 48 46 42 41 40
24 24 25 20 15 14 15 14 13 12 13 12 12 13 14 15 16 20 20 20 22 24 26 26 28 31 33 35 33 33 39 43 42 35 38 43 38 37 41 46 49 46 44
26 24 24 19 18 16 18 13 11 13 13 13 14 14 16 18 21 20 22 23 24 27 28 29 33 31 33 33 36 41 39 38 42 37 33 40 38 54 32 44 45 44 48
Wind_Direction
19 11 19 40 51 54 52 48 42 29 25 24 20 21 26 27 22 20 23 21 16 11 7 5 11 11 7 6 8 10 2 12 328 254 126 126 134 120 127 127 126 113 126
35 15 10 20 35 37 38 38 39 31 32 36 34 32 29 29 26 20 19 19 20 16 7 356 352 352 3 357 5 4 11 7 21 76 88 124 125 122 140 145 138 125 124
31 49 1 4 25 31 29 37 44 46 48 51 44 44 39 25 20 22 19 16 12 10 1 358 352 340 326 320 342 355 7 18 28 74 102 125 133 144 154 152 152 141 68
51 4 354 5 28 37 42 43 54 53 54 55 52 42 36 24 23 14 14 14 9 7 9 0 353 348 313 300 314 336 22 31 45 80 68 91 71 236 233 207 248 311 321
9 2 38 30 34 43 49 51 60 57 54 50 49 42 34 27 23 18 12 10 8 2 360 359 353 351 328 302 293 300 348 51 91 73 45 -0 314 278 279 271 280 283 282
33 12 56 49 48 52 63 66 61 56 55 50 45 40 36 33 30 23 18 11 4 359 358 355 355 341 331 317 286 274 271 270 164 57 1 298 266 283 267 287 291 288 287
79 28 62 67 64 70 67 65 64 60 51 43 38 32 29 29 22 20 17 15 13 5 356 351 345 339 325 310 286 268 254 245 239 227 266 269 275 274 278 279 286 285 289
96 59 58 62 62 72 75 73 66 56 49 45 42 36 32 29 21 20 20 13 8 5 5 355 342 335 316 301 284 271 248 247 244 217 251 277 272 275 278 282 282 283 284
103 106 68 64 52 65 76 71 61 54 46 38 38 36 38 20 1 6 9 5 7 5 2 359 352 335 316 299 291 278 255 259 270 248 238 245 269 271 277 278 277 283 287
107 114 107 107 90 38 86 74 54 40 31 25 21 22 21 23 351 4 352 358 359 0 359 358 353 346 316 300 295 268 250 265 284 268 256 262 263 261 270 276 278 275 284
118 103 123 110 122 104 65 65 36 29 17 13 10 11 8 7 359 4 356 345 354 351 0 353 348 347 330 302 291 269 252 255 251 252 236 240 247 261 263 269 266 263 258
148 127 128 137 137 131 105 46 18 15 9 7 4 3 3 2 0 359 3 343 346 346 352 341 351 337 333 328 308 282 268 252 249 226 227 227 275 262 259 265 254 261 249
162 155 140 145 139 152 125 12 6 7 5 4 360 357 356 356 355 355 355 356 351 351 350 350 332 327 334 338 306 278 267 251 248 231 257 246 251 265 259 243 248 249 250
181 173 165 161 184 189 336 345 356 359 1 358 356 351 348 349 348 348 351 349 345 345 335 322 311 301 306 320 315 312 275 258 241 247 268 252 249 255 257 238 233 255 267
195 192 199 211 226 251 298 334 343 355 354 353 348 347 344 348 348 349 349 350 346 336 327 322 315 302 293 277 302 303 290 268 267 247 259 251 250 251 255 245 236 232 253
208 214 217 231 260 285 309 334 339 344 346 346 346 346 343 346 349 349 351 350 346 343 341 338 334 314 291 276 265 289 288 281 271 261 254 255 243 243 247 245 228 238 229
220 224 230 242 261 281 303 321 330 334 337 340 344 341 338 345 350 355 357 355 349 345 343 341 339 332 319 291 276 276 277 283 277 263 262 251 245 248 246 248 231 229 233
224 228 238 245 255 272 292 310 316 320 329 333 336 332 336 343 348 352 353 352 344 344 346 344 340 328 321 311 290 275 274 284 281 276 259 253 248 247 247 244 239 231 228
210 226 242 245 253 269 285 293 302 314 323 324 328 327 334 337 341 344 346 344 339 339 340 337 333 330 320 316 311 287 271 268 283 275 270 257 248 246 247 247 241 231 226
220 222 229 245 257 267 277 281 293 309 318 320 325 325 331 334 335 337 341 341 339 336 333 333 331 326 314 311 298 291 282 264 269 273 270 266 259 253 247 241 235 235 228
225 224 233 239 245 258 272 281 295 309 314 317 322 324 331 334 336 340 341 329 328 325 325 326 326 323 323 318 317 304 283 266 259 267 263 265 257 256 246 236 229 232 231
231 221 219 241 252 259 274 282 294 308 314 326 325 311 326 328 337 331 326 322 319 322 319 323 324 321 318 319 311 313 318 302 285 279 275 262 260 254 248 242 229 224 230
218 219 231 216 245 265 274 286 297 306 314 315 296 320 318 321 323 318 315 310 317 313 315 315 312 311 309 305 302 305 307 303 305 281 270 264 264 257 249 244 241 225 221
223 219 230 235 239 250 271 281 293 307 312 304 309 304 305 313 316 309 302 310 308 309 307 309 307 305 305 303 302 299 288 295 301 300 289 276 273 253 253 246 237 227 219
227 224 223 233 232 244 252 264 291 303 302 304 301 302 313 315 300 301 306 302 304 303 304 306 301 300 296 299 296 297 295 293 305 289 286 292 297 280 247 238 235 228 217
222 224 230 227 224 229 248 268 281 287 295 292 301 308 303 303 306 306 306 305 301 299 301 298 302 301 298 296 292 295 291 293 300 288 278 280 288 278 285 238 225 218 212